Home   Weather   Ankara   Past weeks
Flag for Turkey

Past Weather in Ankara, Turkey — Yesterday and Last 2 Weeks

Now
73 °F

Clear.


Feels Like: 77 °F
Forecast: 82 / 57 °F
Wind: 9 mph from East

Location: Ankara / Guvercin Lik

Current Time: Jul 19, 2019 at 10:11:07 pm

Latest Report: Jul 19, 2019 at 8:50 pm


Visibility: 10 mi

Pressure: 30.04 "Hg (27.17 "Hg at 871m altitude)

Humidity: 47%

Dew Point: 52 °F

Location of AnkaraLocation

Past Weather in Ankara — Graph

°F

Ankara Temperature Yesterday

Maximum temperature yesterday: 75 °F (at 3:50 pm)
Minimum temperature yesterday: 61 °F (at 11:50 pm)
Average temperature yesterday: 67 °F

High & Low Weather Summary for the Past Weeks

 TemperatureHumidityPressure
High91 °F (Jul 8, 4:50 pm)100% (Jul 19, 1:50 am)30.07 "Hg (Jul 19, 1:50 am)
Low50 °F (Jul 13, 5:50 am)16% (Jul 8, 1:50 pm)29.65 "Hg (Jul 11, 1:50 pm)
Average71 °F53%29.86 "Hg
* Reported Jul 4 9:03 pm — Jul 19 8:50 pm, Ankara. Weather by CustomWeather, © 2019

Note: Actual official high and low records may vary slightly from our data, if they occured in-between our weather recording intervals... More about our weather records

Advertising

Ankara Weather History for the Previous 24 Hours

Scroll right to see more
 ConditionsComfort  
Time TempWeatherWind HumidityBarometerVisibility
8:50 pm
Fri, Jul 19
73 °FClear.9 mph47%30.04 "Hg10 mi
7:50 pm77 °FPassing clouds.7 mph36%30.04 "HgN/A
6:50 pm79 °FScattered clouds.8 mph34%30.01 "HgN/A
5:50 pm79 °FScattered clouds.6 mph37%30.01 "HgN/A
4:50 pm81 °FScattered clouds.5 mph34%30.01 "HgN/A
3:50 pm79 °FScattered clouds.10 mph39%30.01 "HgN/A
2:50 pm77 °FPartly sunny.9 mph42%30.04 "HgN/A
1:50 pm79 °FScattered clouds.7 mph37%30.04 "HgN/A
12:50 pm77 °FScattered clouds.7 mph44%30.04 "HgN/A
11:50 am73 °FScattered clouds.7 mph47%30.04 "HgN/A
10:50 am72 °FScattered clouds.7 mph50%30.04 "HgN/A
9:50 am70 °FScattered clouds.2 mph57%30.04 "HgN/A
8:50 am64 °FSunny.No wind78%30.04 "Hg10 mi
8:10 am59 °FSunny.No wind100%30.07 "Hg10 mi
7:50 am59 °FFog.No wind100%30.04 "Hg2 mi
6:50 am59 °FFog.No wind94%30.04 "Hg2 mi
5:50 am59 °FFog.No wind94%30.04 "Hg2 mi
4:50 am59 °FClear.No wind94%30.01 "Hg10 mi
3:50 am57 °FClear.No wind94%30.01 "Hg10 mi
1:50 am59 °FClear.No wind100%30.01 "Hg10 mi
12:50 am61 °FClear.No wind94%30.01 "Hg10 mi
11:50 pm
Thu, Jul 18
61 °FPassing clouds.No wind94%30.01 "HgN/A
10:40 pm63 °FPartly cloudy.No wind88%29.98 "HgN/A
Weather by CustomWeather, © 2019

See weather overview